Weather History for Barter Island, AK

Change the Weather History Date:

Monday, April 1, 2013

  Actual Average Record
Temperature  
Mean Temperature 0 °F -  
Max Temperature -6 °F 2 °F 18 °F (2002)
Min Temperature -5 °F -11 °F -32 °F (1999)
Degree Days  
Heating Degree Days 66    
Moisture  
Dew Point -2 °F    
Average Humidity 86    
Maximum Humidity 92    
Minimum Humidity 83    
Precipitation  
Precipitation 0.00 in - - ()
Sea Level Pressure  
Sea Level Pressure 30.50 in    
Wind  
Wind Speed 13 mph (East)    
Max Wind Speed 21 mph    
Max Gust Speed -    
Visibility 7 miles    
Events Snow    
Averages and records for this station are not official NWS values.
T = Trace of Precipitation, MM = Missing Value Source: NWS Daily Summary

Daily Weather History Graph

Daily Weather History Graph

Search for Another Location

Airport:

Trip Planner

Search our weather history database for the weather conditions in past years. The results will help you decide how hot, cold, wet, or windy it might be!

Date:

Astronomy

Apr. 01, 2013 Rise Set
Actual Time 6:34 AM AKDT 8:43 PM AKDT
Civil Twilight 5:27 AM AKDT 9:51 PM AKDT
Nautical Twilight 3:48 AM AKDT 11:34 PM AKDT
Astronomical Twilight Sun does not rise Sun does not rise
Moon No Moon Rise No Moon Set
Length of Visible Light 16h 23m
Length of Day
14h 09m
Waning Gibbous, 65% of the Moon is Illuminated
Apr 1
Waning Gibbous
Apr 2
Last Quarter
Apr 10
New
Apr 18
First Quarter
Apr 25
Full

Hourly Weather History & Observations

Time (AKDT) Temp. Windchill Dew Point Humidity Pressure Visibility Wind Dir Wind Speed Gust Speed Precip Events Conditions
12:01 AM 1.9 °F -12.9 °F -0.9 °F 88% 30.44 in 9.0 mi East 9.2 mph - 0.00 in Snow Light Snow
1:01 AM 1.9 °F -16.2 °F -0.9 °F 88% 30.45 in 9.0 mi East 13.8 mph - 0.00 in Snow Light Snow
2:01 AM 1.9 °F -14.7 °F -0.9 °F 88% 30.46 in 9.0 mi East 11.5 mph - 0.00 in Snow Light Snow
3:01 AM 1.9 °F -15.5 °F -0.9 °F 88% 30.47 in 9.0 mi East 12.7 mph - 0.00 in   Unknown
4:01 AM 1.9 °F -14.7 °F -0.9 °F 88% 30.47 in 9.0 mi East 11.5 mph - 0.00 in Snow Light Snow
5:01 AM 1.0 °F -14.0 °F -0.9 °F 91% 30.48 in 10.0 mi ENE 9.2 mph - 0.00 in Snow Light Snow
6:01 AM 1.9 °F -11.8 °F -0.9 °F 88% 30.49 in 9.0 mi ESE 8.1 mph - 0.00 in Snow Light Snow
7:01 AM 1.0 °F -12.9 °F -2.0 °F 87% 30.49 in 10.0 mi ESE 8.1 mph - 0.00 in Snow Light Snow
8:01 AM 1.0 °F -15.8 °F -2.0 °F 87% 30.50 in 8.0 mi ESE 11.5 mph - 0.00 in Snow Light Snow
9:01 AM 1.0 °F -12.9 °F -2.0 °F 87% 30.50 in 9.0 mi ESE 8.1 mph - 0.00 in Snow Light Snow
10:01 AM 1.9 °F -14.7 °F -2.0 °F 83% 30.50 in 10.0 mi SE 11.5 mph - 0.00 in   Unknown
11:01 AM 1.9 °F -14.7 °F -0.9 °F 88% 30.50 in 10.0 mi ESE 11.5 mph - N/A   Unknown
12:01 PM 3.2 °F -15.3 °F -0.4 °F 85% 30.50 in 2.5 mi ESE 15.0 mph - 0.00 in Snow Light Snow
12:07 PM 3.0 °F -15.5 °F -0.9 °F 84% 30.51 in 2.0 mi ESE 15.0 mph - 0.00 in Snow Light Snow
12:33 PM 1.4 °F -18.2 °F -0.4 °F 92% 30.51 in 2.0 mi East 16.1 mph - N/A Snow Light Snow
1:01 PM 3.0 °F -16.7 °F -0.0 °F 87% 30.51 in 1.2 mi ESE 17.3 mph - N/A Snow Light Snow
1:10 PM 3.2 °F -17.1 °F -0.4 °F 85% 30.51 in 1.0 mi East 18.4 mph - 0.00 in Snow Light Snow
1:18 PM 3.2 °F -17.6 °F -0.4 °F 85% 30.51 in 2.0 mi ESE 19.6 mph - 0.00 in Snow Light Snow
1:29 PM 3.2 °F -17.6 °F -0.4 °F 85% 30.51 in 3.0 mi ESE 19.6 mph - 0.00 in Snow Light Snow
2:01 PM 3.0 °F -17.3 °F -0.9 °F 84% 30.51 in 4.0 mi ESE 18.4 mph - N/A Snow Light Snow
3:01 PM 3.9 °F -15.0 °F -0.0 °F 84% 30.52 in 6.0 mi East 16.1 mph - 0.00 in Snow Light Snow
4:01 PM 3.9 °F -17.1 °F -0.0 °F 84% 30.52 in 5.0 mi East 20.7 mph - 0.00 in Snow Light Snow
5:01 PM 3.9 °F -16.1 °F -0.0 °F 84% 30.52 in 5.0 mi East 18.4 mph - 0.00 in Snow Light Snow
6:01 PM 3.0 °F -17.3 °F -0.9 °F 84% 30.53 in 7.0 mi East 18.4 mph - 0.00 in   Unknown
7:01 PM 1.9 °F -17.5 °F -0.9 °F 88% 30.52 in 9.0 mi East 16.1 mph - 0.00 in Snow Light Snow
8:01 PM -0.0 °F -19.4 °F -4.0 °F 83% 30.52 in 10.0 mi East 15.0 mph - 0.00 in   Unknown
9:01 PM -2.9 °F -23.1 °F -6.0 °F 87% 30.53 in 10.0 mi ENE 15.0 mph - N/A   Unknown
10:01 PM -4.0 °F -24.5 °F -8.0 °F 83% 30.54 in 10.0 mi East 15.0 mph - N/A   Unknown
11:01 PM -5.1 °F -25.1 °F -9.0 °F 83% 30.55 in 10.0 mi East 13.8 mph - N/A   Unknown